This demonstration page uses our WeatherBlox Daily Observations layout. Learn more.

Left ArrowRight Arrow

39.92423, -83.80882

Hourly Observations for March 20, 2020

Temp ( °F °C ) Dew Point ( °F °C ) Humidity (%) Winds ( mph kmh ) Pressure ( in mb ) Visibility ( mi km ) Precip ( " mm )
12:17 am 00:17 Mostly Cloudy with Rain 64 18 64 18 100 100 SW 21 33 29.92 1013 10 16.0934 0.02 0.508
12:53 am 00:53 Cloudy with Rain 64 18 64 18 100 100 SW 16 26 29.92 1013 9 14.48406 0.07 1.778
12:56 am 00:56 Cloudy with Rain 64 17.8 64 17.8 100 100 SW 13 20 29.94 1014 9 14.48406 0.08 2.032
1:11 am 01:11 Cloudy with Nearby Thunderstorms 64 18 64 18 100 100 WSW 13 20 29.92 1013 10 16.0934 0.01 0.254
1:24 am 01:24 Cloudy with Nearby Thunderstorms 63 17 63 17 100 100 WSW 15 24 29.94 1014 4 6.43736 0.25 6.35
1:34 am 01:34 Cloudy with Rain 63 17 63 17 100 100 WSW 14 22 29.93 1014 8 12.87472 0.31 7.874
1:40 am 01:40 Cloudy with Light Rain 63 17 63 17 100 100 WSW 15 24 29.93 1014 10 16.0934 0.32 8.128
1:56 am 01:56 Cloudy with Rain 61 16.1 61 16.1 100 100 SSW 10 17 29.94 1014 9 14.48406 0.37 9.398
2:22 am 02:22 Cloudy with Nearby Thunderstorms 61 16 61 16 100 100 W 7 11 29.92 1013 10 16.0934 0.02 0.508
2:29 am 02:29 Cloudy with Nearby Thunderstorms 61 16 61 16 100 100 VRB 5 7 29.91 1013 10 16.0934 0.04 1.016
2:43 am 02:43 Cloudy with Heavy Rain 63 17 63 17 100 100 SSW 12 19 29.91 1013 7 11.26538 0.18 4.572
2:56 am 02:56 Cloudy with Rain 63 17.2 63 17.2 100 100 SW 14 22 29.93 1014 10 16.0934 0.59 14.986
3:04 am 03:04 Cloudy with Nearby Thunderstorms 63 17 63 17 100 100 SW 17 28 29.91 1013 10 16.0934 0.02 0.508
3:26 am 03:26 Cloudy with Nearby Thunderstorms 63 17 63 17 100 100 SW 21 33 29.88 1012 7 11.26538 0.59 14.986
3:56 am 03:56 Cloudy with Nearby Thunderstorms 60 15.6 60 15.6 100 100 W 10 17 29.91 1013 10 16.0934 3.06 77.724
4:00 am 04:00 Cloudy with Thunderstorms 61 16 61 16 100 100 W 33 54 29.91 1013 7 11.26538 0.3 7.62
4:09 am 04:09 Cloudy with Heavy Thunderstorms 59 15 59 15 100 100 SW 22 35 29.9 1013 3 4.82802 1.34 34.036
4:17 am 04:17 Cloudy with Thunderstorms 57 14 57 14 100 100 WSW 15 24 29.89 1012 8 12.87472 1.49 37.846
4:24 am 04:24 Cloudy with Thunderstorms 57 14 57 14 100 100 WSW 18 30 29.89 1012 10 16.0934 1.5 38.1
4:46 am 04:46 Cloudy with Light Rain 59 15 59 15 100 100 SSW 12 19 29.85 1011 10 16.0934 1.54 39.116
4:56 am 04:56 Cloudy with Thunderstorms 59 15 59 15 100 100 SSW 13 20 29.87 1011 10 16.0934 1.55 39.37
5:06 am 05:06 Cloudy with Thunderstorms 61 16 61 16 100 100 WSW 24 39 29.84 1010 10 16.0934 0.03 0.762
5:56 am 05:56 Cloudy with Rain 61 16.1 61 16.1 100 100 SW 21 33 29.84 1011 10 16.0934 0.13 3.302
6:56 am 06:56 Mostly Cloudy 62 16.7 62 16.7 100 100 SSW 18 30 29.84 1010 10 16.0934 0.83 21.082
7:21 am 07:21 Cloudy 63 17 63 17 100 100 SW 20 31 29.83 1010 10 16.0934 0.1 2.54
7:56 am 07:56 Cloudy 63 17.2 63 17.2 100 100 SW 22 35 29.84 1011 10 16.0934 0.32 8.128
8:56 am 08:56 Mostly Cloudy 65 18.3 64 17.8 97 97 WSW 20 31 29.87 1012 10 16.0934 0.26 6.604
9:47 am 09:47 Cloudy 64 18 64 18 100 100 WSW 21 33 29.89 1012 10 16.0934 0.75 19.05
9:56 am 09:56 Cloudy 66 18.9 64 17.8 93 93 WSW 24 39 29.91 1013 10 16.0934 0.75 19.05
10:56 am 10:56 Cloudy 66 18.9 63 17.2 90 90 WSW 18 30 29.93 1014 10 16.0934 0 0
11:54 am 11:54 Mostly Cloudy 66 19 61 16 83 83 WSW 22 35 29.92 1013 10 16.0934 0 0
11:56 am 11:56 Mostly Cloudy 67 19.4 62 16.7 84 84 WSW 24 39 29.93 1013 10 16.0934 0 0
12:17 pm 12:17 Cloudy 68 20 61 16 78 78 WSW 28 44 29.91 1013 10 16.0934 0 0
12:32 pm 12:32 Mostly Cloudy 68 20 61 16 78 78 WSW 25 41 29.92 1013 10 16.0934 0 0
12:56 pm 12:56 Cloudy with Light Rain 67 19.4 59 15 76 76 W 24 39 29.94 1014 10 16.0934 0.001 0.001
1:33 pm 13:33 Cloudy with Light Rain 59 15 57 14 94 94 NW 24 39 29.99 1016 10 16.0934 0.14 3.556
1:56 pm 13:56 Cloudy 57 13.9 56 13.3 96 96 WNW 18 30 30.02 1017 10 16.0934 1 25.4
2:47 pm 14:47 Mostly Cloudy 57 14 54 12 88 88 NW 18 30 30.02 1016 10 16.0934 5.03 127.762
2:56 pm 14:56 Mostly Cloudy 57 13.9 53 11.7 87 87 NW 18 30 30.02 1017 10 16.0934 5.43 137.922
3:56 pm 15:56 Cloudy 53 11.7 49 9.4 86 86 NW 18 30 30.06 1018 10 16.0934 1.98 50.292
4:56 pm 16:56 Cloudy 49 9.4 44 6.7 83 83 NW 21 33 30.11 1020 10 16.0934 2.03 51.562
5:56 pm 17:56 Cloudy 45 7.2 41 5 86 86 NW 18 30 30.16 1022 10 16.0934 1.62 41.148
6:56 pm 18:56 Cloudy 43 6.1 39 3.9 86 86 NW 17 28 30.21 1023 10 16.0934 0.19 4.826
7:56 pm 19:56 Cloudy 42 5.6 37 2.8 82 82 NNW 15 24 30.23 1024 10 16.0934 0.25 6.35
8:56 pm 20:56 Cloudy 41 5 36 2.2 82 82 NNW 21 33 30.24 1024 10 16.0934 0 0
9:56 pm 21:56 Cloudy 40 4.4 34 1.1 79 79 N 16 26 30.29 1026 10 16.0934 0.12 3.048
10:56 pm 22:56 Cloudy 39 3.9 35 1.7 86 86 NNW 16 26 30.32 1027 10 16.0934 0.73 18.542
11:56 pm 23:56 Cloudy 37 2.8 33 0.6 86 86 NNW 16 26 30.34 1027 10 16.0934 1.93 49.022

Powered by AerisWeather